Find Starlink 34432

NORAD ID: 64426 Int'l Des: 2025-129 Owner: SPXS Country: US Constellation: starlink operational
LEOCIRCULAR

当前视图

正在加载3D地球...

About Starlink 34432

Starlink 34432 (NORAD 64426) is a starlink constellation satellite (v2 mini) launched Jun 17, 2025 by SPXS of US. It operates in LEO, CIRCULAR orbit with a mass of 575.00 kg.

关于 Starlink 34432

正在加载描述...

即将过境

Passes for default location (London). Set your location on the main map for personalized predictions.

高度历史

Loading altitude history...

两行轨道根数

1 64426U 25129Q 26195.17567051 .00004060 00000-0 34790-3 0 9992
2 64426 70.0012 115.5385 0003056 267.3466 92.7344 14.98325374 60179
Epoch: Jul 14, 2026 • Age: 5 hours

当前状态

高度 578.8 km
远地点 / 近地点 N/A
速度 7.57 km/s
星下点 40.92°N, 160°W
发射日期 Jun 17, 2025
运行时间 1 year
类型 internet

技术详情

分类 Payload
质量 575.00 kg
干质量 530.00 kg
总质量 575.00 kg
长度 0.30 m
直径 4.10 m
跨度 29.00 m
形状 Box + pan
制造商 SPXS
平台类型 Starlink V2MO
阶段状态 In Orbit
所有者/国家 SPXS/US

Most Searched